SB KEPS @ AMSAT $ORB12005.O Orbital Elements 12005.OSCAR
HR AMSAT ORBITAL ELEMENTS FOR OSCAR SATELLITES FROM WA5QGD FORT WORTH,TX January 5, 2012 Send Subscribe/unsubscribe to KEPS at http://www.amsat.org/mailman/listinfo/keps BID: ORB12005.O TO ALL RADIO AMATEURS BT
Satellite: AO-07 Catalog number: 07530 Epoch time: 12004.50631824 Element set: 0274 Inclination: 101.3968 deg RA of node: 008.1218 deg Eccentricity: 0.0011778 Arg of perigee: 245.5522 deg Mean anomaly: 114.4322 deg Mean motion: 12.53586767 rev/day Decay rate: -2.7e-07 rev/day^2 Epoch rev: 69941 Checksum: 285
Satellite: FO-29 Catalog number: 24278 Epoch time: 12005.82999622 Element set: 744 Inclination: 098.5745 deg RA of node: 127.9596 deg Eccentricity: 0.0351190 Arg of perigee: 092.2779 deg Mean anomaly: 271.8595 deg Mean motion: 13.52975685 rev/day Decay rate: 2.8e-07 rev/day^2 Epoch rev: 75986 Checksum: 380
Satellite: SO-33 Catalog number: 25509 Epoch time: 12005.83139739 Element set: 137 Inclination: 031.4325 deg RA of node: 178.0427 deg Eccentricity: 0.0353251 Arg of perigee: 214.1003 deg Mean anomaly: 143.6486 deg Mean motion: 14.28644993 rev/day Decay rate: 8.56e-06 rev/day^2 Epoch rev: 68927 Checksum: 309
Satellite: RS-22 Catalog number: 27939 Epoch time: 12005.77852415 Element set: 963 Inclination: 097.8244 deg RA of node: 214.8543 deg Eccentricity: 0.0014598 Arg of perigee: 064.5312 deg Mean anomaly: 295.7401 deg Mean motion: 14.63856883 rev/day Decay rate: 6.36e-06 rev/day^2 Epoch rev: 44197 Checksum: 338
Satellite: VO-52 Catalog number: 28650 Epoch time: 12004.59990454 Element set: 0992 Inclination: 097.6184 deg RA of node: 043.4797 deg Eccentricity: 0.0025850 Arg of perigee: 219.5760 deg Mean anomaly: 140.3566 deg Mean motion: 14.82589890 rev/day Decay rate: 1.292e-05 rev/day^2 Epoch rev: 36058 Checksum: 343
Satellite: SO-67 Catalog number: 35870 Epoch time: 12005.92638008 Element set: 561 Inclination: 097.2563 deg RA of node: 047.3802 deg Eccentricity: 0.0003329 Arg of perigee: 049.7882 deg Mean anomaly: 049.1456 deg Mean motion: 15.22479410 rev/day Decay rate: 4.435e-05 rev/day^2 Epoch rev: 12776 Checksum: 315
Satellite: HO-68 Catalog number: 36122 Epoch time: 12005.79936796 Element set: 77 Inclination: 100.3882 deg RA of node: 068.2892 deg Eccentricity: 0.0007717 Arg of perigee: 121.4580 deg Mean anomaly: 238.7289 deg Mean motion: 13.16292275 rev/day Decay rate: -4.4e-07 rev/day^2 Epoch rev: 9889 Checksum: 337
/EX SB KEPS @ AMSAT $ORB12005.D Orbital Elements 12005.MICROS
HR AMSAT ORBITAL ELEMENTS FOR THE MICROSATS FROM WA5QGD FORT WORTH,TX January 5, 2012 Send Subscribe/unsubscribe to KEPS at http://www.amsat.org/mailman/listinfo/keps BID: ORB12005.D TO ALL RADIO AMATEURS BT
Satellite: UO-11 Catalog number: 14781 Epoch time: 12004.87179764 Element set: 0758 Inclination: 097.9794 deg RA of node: 065.6576 deg Eccentricity: 0.0008487 Arg of perigee: 200.0557 deg Mean anomaly: 160.0324 deg Mean motion: 14.80264981 rev/day Decay rate: 8.74e-06 rev/day^2 Epoch rev: 49562 Checksum: 339
Satellite: AO-16 Catalog number: 20439 Epoch time: 12004.89050139 Element set: 365 Inclination: 098.4111 deg RA of node: 313.0369 deg Eccentricity: 0.0010221 Arg of perigee: 289.4213 deg Mean anomaly: 070.5863 deg Mean motion: 14.32004189 rev/day Decay rate: 2.06e-06 rev/day^2 Epoch rev: 14648 Checksum: 267
Satellite: LO-19 Catalog number: 20442 Epoch time: 12004.93861509 Element set: 0300 Inclination: 098.3755 deg RA of node: 316.6774 deg Eccentricity: 0.0010964 Arg of perigee: 279.0268 deg Mean anomaly: 080.9670 deg Mean motion: 14.32225164 rev/day Decay rate: 8.2e-07 rev/day^2 Epoch rev: 14667 Checksum: 303
Satellite: AO-27 Catalog number: 22825 Epoch time: 12004.82216673 Element set: 0 Inclination: 098.5555 deg RA of node: 310.3594 deg Eccentricity: 0.0009051 Arg of perigee: 046.8926 deg Mean anomaly: 313.3036 deg Mean motion: 14.29418040 rev/day Decay rate: 7.9e-07 rev/day^2 Epoch rev: 95299 Checksum: 295
Satellite: IO-26 Catalog number: 22826 Epoch time: 12005.83405766 Element set: 748 Inclination: 098.5511 deg RA of node: 311.7674 deg Eccentricity: 0.0009695 Arg of perigee: 037.5848 deg Mean anomaly: 322.6008 deg Mean motion: 14.29687943 rev/day Decay rate: 1.70e-06 rev/day^2 Epoch rev: 95326 Checksum: 333
Satellite: GO-32 Catalog number: 25397 Epoch time: 12005.80686525 Element set: 671 Inclination: 098.3449 deg RA of node: 352.7220 deg Eccentricity: 0.0002053 Arg of perigee: 061.2927 deg Mean anomaly: 298.8451 deg Mean motion: 14.23249921 rev/day Decay rate: -8.5e-07 rev/day^2 Epoch rev: 70078 Checksum: 309
Satellite: NO-44 Catalog number: 26931 Epoch time: 12004.79396773 Element set: 937 Inclination: 067.0505 deg RA of node: 184.0147 deg Eccentricity: 0.0005331 Arg of perigee: 279.8611 deg Mean anomaly: 080.1905 deg Mean motion: 14.29745869 rev/day Decay rate: 2.04e-06 rev/day^2 Epoch rev: 53574 Checksum: 318
Satellite: SO-50 Catalog number: 27607 Epoch time: 12004.65401617 Element set: 0657 Inclination: 064.5584 deg RA of node: 075.3212 deg Eccentricity: 0.0084604 Arg of perigee: 280.3201 deg Mean anomaly: 078.8366 deg Mean motion: 14.72141571 rev/day Decay rate: 9.49e-06 rev/day^2 Epoch rev: 48574 Checksum: 303
Satellite: CO-55 Catalog number: 27844 Epoch time: 12004.50622756 Element set: 0281 Inclination: 098.7048 deg RA of node: 015.2804 deg Eccentricity: 0.0009815 Arg of perigee: 342.3699 deg Mean anomaly: 017.7139 deg Mean motion: 14.20939524 rev/day Decay rate: 2.68e-06 rev/day^2 Epoch rev: 44150 Checksum: 308
Satellite: CO-57 Catalog number: 27848 Epoch time: 12004.55215564 Element set: 228 Inclination: 098.7130 deg RA of node: 014.5897 deg Eccentricity: 0.0009683 Arg of perigee: 348.6756 deg Mean anomaly: 011.4199 deg Mean motion: 14.20702503 rev/day Decay rate: 2.36e-06 rev/day^2 Epoch rev: 44145 Checksum: 308
Satellite: AO-51 Catalog number: 28375 Epoch time: 12004.92195826 Element set: 0162 Inclination: 098.1240 deg RA of node: 338.0554 deg Eccentricity: 0.0083068 Arg of perigee: 178.0512 deg Mean anomaly: 182.0996 deg Mean motion: 14.40879820 rev/day Decay rate: 2.36e-06 rev/day^2 Epoch rev: 39511 Checksum: 308
Satellite: CP3 Catalog number: 31129 Epoch time: 12005.80081465 Element set: 61 Inclination: 097.8871 deg RA of node: 023.1938 deg Eccentricity: 0.0100264 Arg of perigee: 271.3697 deg Mean anomaly: 087.5915 deg Mean motion: 14.52835185 rev/day Decay rate: 7.73e-06 rev/day^2 Epoch rev: 25025 Checksum: 297
Satellite: CO-65 Catalog number: 32785 Epoch time: 12004.65607608 Element set: 0195 Inclination: 097.8246 deg RA of node: 069.4604 deg Eccentricity: 0.0013680 Arg of perigee: 238.1763 deg Mean anomaly: 121.8133 deg Mean motion: 14.82584704 rev/day Decay rate: 1.005e-05 rev/day^2 Epoch rev: 19938 Checksum: 316
Satellite: PRISM Catalog number: 33493 Epoch time: 12005.89252308 Element set: 302 Inclination: 098.1476 deg RA of node: 142.9210 deg Eccentricity: 0.0020216 Arg of perigee: 105.6124 deg Mean anomaly: 254.7304 deg Mean motion: 14.82999750 rev/day Decay rate: 3.519e-05 rev/day^2 Epoch rev: 15954 Checksum: 285
Satellite: SOHLA-1 Catalog number: 33496 Epoch time: 12004.91365333 Element set: 0634 Inclination: 098.0925 deg RA of node: 117.9010 deg Eccentricity: 0.0006243 Arg of perigee: 195.3544 deg Mean anomaly: 164.7472 deg Mean motion: 14.69832467 rev/day Decay rate: 5.37e-06 rev/day^2 Epoch rev: 15811 Checksum: 299
Satellite: TISAT-1 Catalog number: 36799 Epoch time: 12005.91201161 Element set: 574 Inclination: 098.0805 deg RA of node: 081.0088 deg Eccentricity: 0.0014698 Arg of perigee: 345.9378 deg Mean anomaly: 014.1402 deg Mean motion: 14.81385038 rev/day Decay rate: 2.068e-05 rev/day^2 Epoch rev: 8031 Checksum: 292
Satellite: STUDSAT Catalog number: 36801 Epoch time: 12005.91381060 Element set: 313 Inclination: 098.0851 deg RA of node: 081.1429 deg Eccentricity: 0.0012840 Arg of perigee: 332.2958 deg Mean anomaly: 027.7559 deg Mean motion: 14.82769223 rev/day Decay rate: 5.518e-05 rev/day^2 Epoch rev: 8031 Checksum: 282
Satellite: OOREOS Catalog number: 37224 Epoch time: 11330.25217324 Element set: 0033 Inclination: 071.9741 deg RA of node: 041.3371 deg Eccentricity: 0.0020052 Arg of perigee: 337.4654 deg Mean anomaly: 022.5620 deg Mean motion: 14.77385090 rev/day Decay rate: 2.151e-05 rev/day^2 Epoch rev: 00594 Checksum: 243
Satellite: FO-69 Catalog number: 37227 Epoch time: 12004.45619159 Element set: 0067 Inclination: 071.9721 deg RA of node: 315.4054 deg Eccentricity: 0.0018957 Arg of perigee: 266.6474 deg Mean anomaly: 093.2532 deg Mean motion: 14.76880750 rev/day Decay rate: 5.93e-06 rev/day^2 Epoch rev: 01177 Checksum: 323
Satellite: FO-70 Catalog number: 37380 Epoch time: 12004.43444673 Element set: 0070 Inclination: 071.9756 deg RA of node: 315.8077 deg Eccentricity: 0.0019518 Arg of perigee: 263.6784 deg Mean anomaly: 096.2155 deg Mean motion: 14.76639409 rev/day Decay rate: 7.85e-06 rev/day^2 Epoch rev: 01166 Checksum: 324
/EX SB KEPS @ AMSAT $ORB12005.W Orbital Elements 12005.WEATHER
HR AMSAT ORBITAL ELEMENTS FOR WEATHER SATELLITES FROM WA5QGD FORT WORTH,TX January 5, 2012 Send Subscribe/unsubscribe to KEPS at http://www.amsat.org/mailman/listinfo/keps BID: ORB12005.W TO ALL RADIO AMATEURS BT
Satellite: NOAA-10 Catalog number: 16969 Epoch time: 12004.93795358 Element set: 0775 Inclination: 098.6001 deg RA of node: 036.7717 deg Eccentricity: 0.0012347 Arg of perigee: 359.1892 deg Mean anomaly: 000.9267 deg Mean motion: 14.27517589 rev/day Decay rate: -5.0e-08 rev/day^2 Epoch rev: 31643 Checksum: 324
Satellite: NOAA-11 Catalog number: 19531 Epoch time: 12004.80762346 Element set: 0769 Inclination: 098.7420 deg RA of node: 093.3725 deg Eccentricity: 0.0011050 Arg of perigee: 337.3770 deg Mean anomaly: 022.6930 deg Mean motion: 14.14947434 rev/day Decay rate: -6.8e-07 rev/day^2 Epoch rev: 20126 Checksum: 282
